User: anonymous   Login
Location: Unspecified
(0.0000°N, 0.0000°E)
Time: 04:17:44
(UTC+00:00)
Language:

DOVE 4 - Orbit

View from above orbital plane
View from above orbital plane
View from above satellite
View from above satellite

Ground track
Ground track

The orbit is defined by the following mean orbital elements,

1 39430U          26145.57805387 +.00000000 +00000-0 +21675-3 0 00007
2 39430  97.6504 347.4673 0129440 149.5292 211.3520 14.69352981    00
Epoch (UTC): 25 May 2026 13:52:23
Eccentricity: 0.0129440
inclination: 97.6504°
perigee height: 572 km
apogee height: 754 km
right ascension of ascending node: 347.4673°
argument of perigee: 149.5292°
revolutions per day: 14.69352981
mean anomaly at epoch: 211.3520°

The dashed part of the orbit path shows where the satellite is in the earth's shadow,  

DLR